Date String (YYYY-MM-DD hh:mm:ss) UTC,Instrument flags,Ambient pressure (hPa),Sample flow (lpm),Bypass flow (lpm),Sample temperature (°C),Ambient temperature (°C),ASC tube jacket temperature (°C),LED temperature (°C),Box temperature (°C),Sample RH (%),Span deviation,Mass concentration (μg/m³),Mass concentration (μg/m³),Mass concentration (μg/m³)
DateTimeUTC,F1_M11,P_M11,Q1_M11,Q2_M11,T1_M11,T2_M11,T3_M11,T4_M11,T5_M11,U1_M11,ZSPAN_M11,X0_M11,X2_M11,X1_M11
2021-11-23 11:00:00,,0822.6,5.00,0.00,25.7,24.8,00.0,34.7,27.5,06.5,0000.0,0006.36,0001.67,0001.12
2021-11-23 11:01:00,,0822.6,5.00,0.00,25.7,24.8,00.0,34.7,27.5,06.6,0000.0,0006.06,0001.81,0001.21
2021-11-23 11:02:00,,0822.6,5.01,0.00,25.7,24.8,00.0,34.7,27.5,06.7,0000.0,0006.25,0002.03,0001.32
2021-11-23 11:03:00,,0822.6,5.01,0.00,25.7,24.8,00.0,34.7,27.5,07.2,0000.0,0007.33,0002.49,0001.64
2021-11-23 11:04:00,,0822.6,5.00,0.00,25.7,24.8,00.0,34.7,27.5,06.9,0000.0,0007.90,0002.82,0001.90
2021-11-23 11:05:00,,0822.6,4.99,0.00,25.7,24.8,00.0,34.7,27.5,07.8,0000.0,0008.55,0003.30,0002.38
2021-11-23 11:06:00,,0822.6,5.00,0.00,25.7,24.8,00.0,34.7,27.4,07.7,0000.0,0009.41,0003.68,0002.91
2021-11-23 11:07:00,,0822.6,5.00,0.00,25.7,24.8,00.0,34.7,27.5,07.6,0000.0,0009.93,0004.01,0003.29
2021-11-23 11:08:00,,0822.6,5.00,0.00,25.7,24.8,00.0,34.7,27.5,07.4,0000.0,0010.70,0004.27,0003.50
2021-11-23 11:09:00,,0822.6,5.00,0.00,25.7,24.8,00.0,34.7,27.4,07.5,0000.0,0011.92,0004.56,0003.72
2021-11-23 11:10:00,,0822.6,5.01,0.00,25.7,24.8,00.0,34.7,27.5,07.5,0000.0,0011.95,0004.85,0003.94
2021-11-23 11:11:00,,0822.5,4.99,0.00,25.7,24.8,00.0,34.7,27.5,07.5,0000.0,0013.59,0005.14,0004.17
2021-11-23 11:12:00,,0822.6,5.00,0.00,25.6,24.8,00.0,34.7,27.4,07.2,0000.0,0014.65,0005.33,0004.30
2021-11-23 11:13:00,,0822.5,5.01,0.00,25.6,24.8,00.0,34.7,27.4,07.5,0000.0,0015.76,0005.47,0004.43
2021-11-23 11:14:00,,0822.5,4.99,0.00,25.6,24.7,00.0,34.7,27.4,07.3,0000.0,0015.75,0005.48,0004.47
2021-11-23 11:15:00,,0822.4,5.01,0.00,25.6,24.7,00.0,34.6,27.4,07.2,0000.0,0016.10,0005.49,0004.48
2021-11-23 11:16:00,,0822.5,5.00,0.00,25.6,24.7,00.0,34.6,27.3,07.4,0000.0,0016.22,0005.47,0004.44
2021-11-23 11:17:00,,0822.4,5.00,0.00,25.5,24.7,00.0,34.6,27.4,07.5,0000.0,0016.17,0005.31,0004.34
2021-11-23 11:18:00,,0822.4,5.00,0.00,25.5,24.7,00.0,34.6,27.4,07.5,0000.0,0017.40,0005.22,0004.26
2021-11-23 11:19:00,,0822.4,5.01,0.00,25.5,24.6,00.0,34.6,27.3,07.6,0000.0,0018.74,0005.21,0004.23
2021-11-23 11:20:00,,0822.4,5.00,0.00,25.5,24.6,00.0,34.6,27.3,07.7,0000.0,0019.61,0005.20,0004.22
2021-11-23 11:21:00,,0822.4,4.99,0.00,25.5,24.6,00.0,34.6,27.2,07.8,0000.0,0020.86,0005.29,0004.26
2021-11-23 11:22:00,,0822.4,5.01,0.00,25.5,24.6,00.0,34.6,27.2,07.7,0000.0,0020.02,0005.30,0004.26
2021-11-23 11:23:00,,0822.4,5.00,0.00,25.4,24.6,00.0,34.5,27.2,07.2,0000.0,0018.89,0005.18,0004.21
2021-11-23 11:24:00,,0822.4,4.99,0.00,25.4,24.5,00.0,34.5,27.2,07.7,0000.0,0017.85,0005.20,0004.24
2021-11-23 11:25:00,,0822.4,5.02,0.00,25.4,24.5,00.0,34.5,27.2,07.8,0000.0,0017.81,0005.28,0004.28
2021-11-23 11:26:00,,0822.4,5.00,0.00,25.4,24.5,00.0,34.5,27.2,07.9,0000.0,0017.58,0005.36,0004.39
2021-11-23 11:27:00,,0822.4,4.99,0.00,25.4,24.5,00.0,34.5,27.2,07.8,0000.0,0017.83,0005.43,0004.45
2021-11-23 11:28:00,,0822.4,5.02,0.00,25.4,24.5,00.0,34.5,27.2,07.9,0000.0,0017.15,0005.48,0004.51
2021-11-23 11:29:00,,0822.4,5.00,0.00,25.4,24.5,00.0,34.5,27.1,07.8,0000.0,0016.11,0005.56,0004.54
2021-11-23 11:30:00,,0822.4,4.99,0.00,25.4,24.5,00.0,34.5,27.1,07.8,0000.0,0014.60,0005.60,0004.57
2021-11-23 11:31:00,,0822.4,5.01,0.00,25.3,24.5,00.0,34.4,27.1,07.7,0000.0,0012.89,0005.63,0004.57
2021-11-23 11:32:00,,0822.4,4.99,0.00,25.4,24.5,00.0,34.4,27.1,07.6,0000.0,0012.82,0005.54,0004.52
2021-11-23 11:33:00,,0822.4,5.00,0.00,25.4,24.5,00.0,34.4,27.2,07.5,0000.0,0013.12,0005.42,0004.45
2021-11-23 11:34:00,,0822.3,5.00,0.00,25.4,24.5,00.0,34.4,27.2,07.3,0000.0,0013.73,0005.46,0004.45
2021-11-23 11:35:00,,0822.4,5.01,0.00,25.4,24.6,00.0,34.4,27.2,07.1,0000.0,0014.35,0005.36,0004.37
2021-11-23 11:36:00,,0822.4,4.99,0.00,25.4,24.6,00.0,34.4,27.2,06.7,0000.0,0013.81,0005.09,0004.19
2021-11-23 11:37:00,,0822.4,5.01,0.00,25.4,24.6,00.0,34.4,27.2,06.6,0000.0,0013.01,0004.86,0003.97
2021-11-23 11:38:00,,0822.4,5.00,0.00,25.4,24.6,00.0,34.4,27.2,07.0,0000.0,0012.41,0004.72,0003.85
2021-11-23 11:39:00,,0822.4,5.01,0.00,25.4,24.6,00.0,34.4,27.2,07.1,0000.0,0012.57,0004.58,0003.73
2021-11-23 11:40:00,,0822.4,5.00,0.00,25.4,24.6,00.0,34.4,27.2,07.0,0000.0,0012.36,0004.42,0003.61
2021-11-23 11:41:00,,0822.4,5.00,0.00,25.4,24.6,00.0,34.4,27.3,07.3,0000.0,0012.53,0004.28,0003.52
2021-11-23 11:42:00,,0822.4,4.99,0.00,25.4,24.6,00.0,34.4,27.2,07.5,0000.0,0012.96,0004.22,0003.50
2021-11-23 11:43:00,,0822.3,4.98,0.00,25.4,24.6,00.0,34.4,27.2,06.9,0000.0,0012.02,0004.08,0003.44
2021-11-23 11:44:00,,0822.4,5.00,0.00,25.4,24.6,00.0,34.4,27.2,06.6,0000.0,0010.90,0003.89,0003.30
2021-11-23 11:45:00,,0822.4,5.00,0.00,25.4,24.6,00.0,34.4,27.2,06.9,0000.0,0010.80,0003.79,0003.23
2021-11-23 11:46:00,,0822.4,5.00,0.00,25.4,24.6,00.0,34.4,27.2,06.7,0000.0,0010.13,0003.74,0003.21
2021-11-23 11:47:00,,0822.4,5.00,0.00,25.4,24.6,00.0,34.4,27.3,06.7,0000.0,0010.63,0003.71,0003.18
2021-11-23 11:48:00,,0822.4,5.00,0.00,25.4,24.6,00.0,34.4,27.3,06.7,0000.0,0011.09,0003.69,0003.19
2021-11-23 11:49:00,,0822.4,4.99,0.00,25.5,24.6,00.0,34.4,27.3,06.9,0000.0,0010.89,0003.65,0003.19
2021-11-23 11:50:00,,0822.3,5.00,0.00,25.5,24.6,00.0,34.5,27.3,07.1,0000.0,0010.63,0003.63,0003.19
2021-11-23 11:51:00,,0822.4,5.01,0.00,25.5,24.6,00.0,34.4,27.3,07.1,0000.0,0010.84,0003.61,0003.18
2021-11-23 11:52:00,,0822.4,5.00,0.00,25.5,24.6,00.0,34.5,27.3,07.2,0000.0,0010.85,0003.58,0003.17
2021-11-23 11:53:00,,0822.4,5.00,0.00,25.5,24.7,00.0,34.5,27.3,07.2,0000.0,0010.43,0003.48,0003.09
2021-11-23 11:54:00,,0822.3,5.01,0.00,25.5,24.7,00.0,34.5,27.3,07.1,0000.0,0011.05,0003.50,0003.05
2021-11-23 11:55:00,,0822.3,5.00,0.00,25.5,24.7,00.0,34.5,27.3,07.1,0000.0,0011.42,0003.59,0003.15
2021-11-23 11:56:00,,0822.3,4.99,0.00,25.5,24.7,00.0,34.5,27.3,07.1,0000.0,0010.95,0003.58,0003.16
2021-11-23 11:57:00,,0822.3,5.01,0.00,25.5,24.7,00.0,34.5,27.3,07.0,0000.0,0010.72,0003.58,0003.17
2021-11-23 11:58:00,,0822.3,4.98,0.00,25.5,24.7,00.0,34.5,27.3,07.1,0000.0,0010.33,0003.65,0003.21
2021-11-23 11:59:00,,0822.2,5.01,0.00,25.5,24.7,00.0,34.5,27.3,07.0,0000.0,0009.82,0003.71,0003.24
